Weather History for LEMG - November, 2011

Change the Weather History Date:

Tuesday, November 8, 2011

  Actual Average Record
Temperature  
Mean Temperature 62 °F -  
Max Temperature 68 °F 63 °F 75 °F (2002)
Min Temperature 57 °F 49 °F 41 °F (2000)
Degree Days  
Heating Degree Days 2    
Growing Degree Days 12 (Base 50)    
Moisture  
Dew Point 44 °F    
Average Humidity 51    
Maximum Humidity 63    
Minimum Humidity 33    
Precipitation  
Precipitation 0.00 in 0.14 in - ()
Sea Level Pressure  
Sea Level Pressure 30.04 in    
Wind  
Wind Speed 12 mph ()    
Max Wind Speed 16 mph    
Max Gust Speed -    
Visibility 6.6 miles    
Events      
Averages and records for this station are not official NWS values.
T = Trace of Precipitation, MM = Missing Value Source: Averaged Metar Reports

Daily Weather History Graph

Daily Weather History Graph

Search for Another Location

Airport or City:

Trip Planner

Search our weather history database for the weather conditions in past years. The results will help you decide how hot, cold, wet, or windy it might be!

Date:

Astronomy

Nov. 08, 2011 Rise Set
Actual Time 7:48 AM CET 6:14 PM CET
Civil Twilight 7:20 AM CET 6:41 PM CET
Nautical Twilight 6:50 AM CET 7:12 PM CET
Astronomical Twilight 6:19 AM CET 7:43 PM CET
Moon 4:46 PM CET (11/8) 5:35 AM CET (11/8)
Length of Visible Light 11h 20m
Length of Day
10h 26m
Waxing Gibbous, 95% of the Moon is Illuminated
Nov 8
Waxing Gibbous
Nov 10
Full
Nov 18
Last Quarter
Nov 25
New
Dec 2
First Quarter

Hourly Weather History & Observations

Time (CET) Temp. Dew Point Humidity Pressure Visibility Wind Dir Wind Speed Gust Speed Precip Events Conditions
12:00 AM 60.8 °F 41.0 °F 48% 30.01 in - West 13.8 mph - N/A   Clear
12:30 AM 59.0 °F 41.0 °F 51% 30.01 in - West 12.7 mph - N/A   Clear
1:00 AM 59 °F 40 °F 39% 30.03 in 12 mi West 10.4 mph - -  
1:00 AM 57.2 °F 42.8 °F 59% 30.01 in - West 10.4 mph - N/A   Clear
1:30 AM 59.0 °F 39.2 °F 48% 30.01 in - West 11.5 mph - N/A   Clear
2:00 AM 59.0 °F 41.0 °F 51% 30.01 in - West 11.5 mph - N/A   Clear
2:30 AM 57.2 °F 39.2 °F 51% 30.01 in - WNW 12.7 mph - N/A   Clear
3:00 AM 59.0 °F 39.2 °F 48% 30.01 in - West 13.8 mph - N/A   Clear
3:30 AM 59.0 °F 41.0 °F 51% 30.01 in - West 16.1 mph - N/A   Clear
4:00 AM 59.0 °F 41.0 °F 51% 30.01 in - West 16.1 mph - N/A   Clear
4:30 AM 59.0 °F 41.0 °F 51% 30.01 in - West 16.1 mph - N/A   Clear
5:00 AM 59.0 °F 42.8 °F 55% 30.01 in - West 15.0 mph - N/A   Clear
5:30 AM 57.2 °F 41.0 °F 55% 30.01 in - West 13.8 mph - N/A   Clear
6:00 AM 57.2 °F 42.8 °F 59% 30.01 in - West 13.8 mph - N/A   Clear
6:30 AM 57.2 °F 42.8 °F 59% 30.01 in - West 13.8 mph - N/A   Clear
7:00 AM 58 °F 43 °F 46% 30.03 in 12 mi West 12.7 mph - -  
7:00 AM 57.2 °F 42.8 °F 59% 30.01 in - West 12.7 mph - N/A   Clear
7:30 AM 57.2 °F 42.8 °F 59% 30.04 in - West 13.8 mph - N/A   Clear
8:00 AM 57.2 °F 44.6 °F 63% 30.04 in - West 13.8 mph - N/A   Clear
8:30 AM 59.0 °F 42.8 °F 55% 30.04 in - West 13.8 mph - N/A   Clear
9:00 AM 59.0 °F 44.6 °F 59% 30.04 in - West 13.8 mph - N/A   Clear
9:30 AM 59.0 °F 44.6 °F 59% 30.04 in - West 16.1 mph - N/A   Clear
10:00 AM 60.8 °F 44.6 °F 55% 30.06 in - West 16.1 mph - N/A   Clear
10:30 AM 60.8 °F 44.6 °F 55% 30.06 in - West 15.0 mph - N/A   Clear
11:00 AM 62.6 °F 44.6 °F 52% 30.06 in 6.2 mi West 15.0 mph - N/A   Partly Cloudy
11:30 AM 64.4 °F 44.6 °F 49% 30.06 in 6.2 mi West 13.8 mph - N/A   Partly Cloudy
12:00 PM 64.4 °F 46.4 °F 52% 30.06 in 6.2 mi West 15.0 mph - N/A   Partly Cloudy
12:30 PM 66.2 °F 46.4 °F 49% 30.06 in 6.2 mi West 16.1 mph - N/A   Partly Cloudy
1:00 PM 67 °F 45 °F 33% 30.06 in 25 mi West 12.7 mph - -   Scattered Clouds
1:00 PM 66.2 °F 44.6 °F 46% 30.04 in 6.2 mi West 12.7 mph - N/A   Partly Cloudy
1:30 PM 66.2 °F 44.6 °F 46% 30.04 in 6.2 mi WNW 13.8 mph - N/A   Partly Cloudy
2:00 PM 68.0 °F 46.4 °F 46% 30.04 in 6.2 mi WNW 13.8 mph - N/A   Partly Cloudy
2:30 PM 68.0 °F 46.4 °F 46% 30.01 in 6.2 mi WNW 12.7 mph - N/A   Partly Cloudy
3:00 PM 68.0 °F 46.4 °F 46% 30.01 in 6.2 mi WNW 11.5 mph - N/A   Partly Cloudy
3:30 PM 68.0 °F 46.4 °F 46% 30.01 in 6.2 mi WNW 11.5 mph - N/A   Partly Cloudy
4:00 PM 68.0 °F 44.6 °F 43% 30.01 in 6.2 mi WNW 10.4 mph - N/A   Partly Cloudy
4:30 PM 66.2 °F 46.4 °F 49% 30.01 in 6.2 mi WNW 10.4 mph - N/A   Partly Cloudy
5:00 PM 66.2 °F 46.4 °F 49% 30.04 in 6.2 mi WNW 11.5 mph - N/A   Partly Cloudy
5:30 PM 64.4 °F 46.4 °F 52% 30.04 in 6.2 mi WNW 10.4 mph - N/A   Partly Cloudy
6:00 PM 64.4 °F 44.6 °F 49% 30.04 in 6.2 mi WNW 11.5 mph - N/A   Partly Cloudy
6:30 PM 62.6 °F 44.6 °F 52% 30.04 in 6.2 mi West 12.7 mph - N/A   Partly Cloudy
7:00 PM 63 °F 46 °F 42% 30.06 in 25 mi WNW 12.7 mph - -   Scattered Clouds
7:00 PM 62.6 °F 44.6 °F 52% 30.04 in 6.2 mi WNW 12.7 mph - N/A   Partly Cloudy
7:30 PM 60.8 °F 44.6 °F 55% 30.06 in 6.2 mi WNW 12.7 mph - N/A   Partly Cloudy
8:00 PM 62.6 °F 44.6 °F 52% 30.06 in 6.2 mi WNW 13.8 mph - N/A   Partly Cloudy
8:30 PM 62.6 °F 44.6 °F 52% 30.06 in 6.2 mi West 15.0 mph - N/A   Partly Cloudy
9:00 PM 62.6 °F 44.6 °F 52% 30.06 in 6.2 mi WNW 12.7 mph - N/A   Partly Cloudy
9:30 PM 62.6 °F 44.6 °F 52% 30.09 in 6.2 mi WNW 13.8 mph - N/A   Partly Cloudy
10:00 PM 60.8 °F 46.4 °F 59% 30.09 in 6.2 mi WNW 15.0 mph - N/A   Partly Cloudy
10:30 PM 60.8 °F 44.6 °F 55% 30.09 in 6.2 mi WNW 15.0 mph - N/A   Partly Cloudy
11:00 PM 60.8 °F 44.6 °F 55% 30.09 in 6.2 mi WNW 13.8 mph - N/A   Partly Cloudy
11:30 PM 60.8 °F 44.6 °F 55% 30.09 in 6.2 mi WNW 13.8 mph - N/A   Partly Cloudy